Flag for U.S.A. Weather past 2 weeks in Miami, Florida, U.S.A.

Now
89 °F

Partly sunny.


Feels Like: 97 °F
Forecast: 79 / 90 °F
Wind: 7 mph from North

Location: Miami International Airport

Current Time: Jul 29, 2014 at 12:54:39 PM

Latest Report: Jul 29, 2014 at 11:53 AM


Visibility: 10 mi

Pressure: 30.03 "Hg

Humidity: 59%

Dew point: 73 °F

Location of MiamiLocation

Historic Weather in Miami — Graph

°F

Miami temperature yesterday

Maximum temperature yesterday: 95 °F (at 1:53 PM)
Minimum temperature yesterday: 81 °F (at 4:53 AM)
Average temperature yesterday: 87 °F

Past Weeks' High & Low Weather Summary

 TemperatureHumidityPressure
High95 °F (Jul 28, 1:53 PM)96% (Jul 19, 6:53 AM)30.14 "Hg (Jul 19, 6:53 AM)
Low72 °F (Jul 15, 2:00 PM)40% (Jul 28, 1:53 PM)29.96 "Hg (Jul 16, 5:53 PM)
Average83 °F75%30.05 "Hg
* Reported Jul 14 10:53 AM — Jul 29 10:53 AM, Miami, Weather by CustomWeather, © 2014

Note: Actual official high and low records may vary slightly from our data, if they occured in-between our weather recording intervals... More about our weather records

Advertising

Miami weather history for previous 24 hours

 ConditionsComfort  
Time TempWeatherWind HumidityBarometerVisibility
10:53 AM
Jul 29
90 °FScattered clouds.5 mph56%30.03 "Hg10 mi
9:53 AM88 °FScattered clouds.6 mph63%30.02 "Hg10 mi
8:53 AM86 °FScattered clouds.7 mph67%30.01 "Hg10 mi
7:53 AM82 °FScattered clouds.5 mph77%30.01 "Hg10 mi
6:53 AM81 °FPassing clouds.No wind77%30.00 "Hg10 mi
5:53 AM80 °FPassing clouds.5 mph79%29.99 "Hg10 mi
4:53 AM81 °FPassing clouds.5 mph77%29.99 "Hg10 mi
3:53 AM81 °FPassing clouds.6 mph79%29.99 "Hg10 mi
2:53 AM80 °FPassing clouds.5 mph85%30.01 "Hg10 mi
1:53 AM82 °FPassing clouds.5 mph79%30.03 "Hg10 mi
12:53 AM83 °FPassing clouds.6 mph74%30.04 "Hg10 mi
11:53 PM
Jul 28
84 °FPassing clouds.5 mph70%30.05 "Hg10 mi
10:53 PM85 °FPassing clouds.8 mph68%30.04 "Hg10 mi
9:53 PM86 °FPassing clouds.9 mph63%30.03 "Hg10 mi
8:53 PM88 °FPartly sunny.8 mph52%30.01 "Hg10 mi
7:53 PM91 °FPartly sunny.10 mph44%30.01 "Hg10 mi
6:53 PM90 °FPartly sunny.14 mph63%30.01 "Hg10 mi
5:53 PM90 °FPartly sunny.10 mph61%30.01 "Hg10 mi
4:53 PM93 °FBroken clouds.5 mph56%30.01 "Hg10 mi
3:53 PM94 °FPartly sunny.5 mph44%30.03 "Hg10 mi
2:53 PM94 °FPartly sunny.3 mph40%30.05 "Hg10 mi
1:53 PM95 °FPartly sunny.6 mph40%30.07 "Hg10 mi
12:53 PM93 °FBroken clouds.8 mph46%30.08 "Hg10 mi
Weather by CustomWeather, © 2014

See weather overviewHow to use our weather pages